Location: Kelshall
(52.0000°N, 0.0500°W)
Time: 15:33:13
(UTC+00:00)

Cosmos 2285 Rocket - Pass Details

Date: 18 September 2020
Orbit: 970 x 1000 km, 74.0° (Epoch: 27 October)

Event Time Altitude Azimuth Distance (km) Brightness Sun altitude
Rises 21:19:22 0° 216° (SW) 3,657 6.9 -27.5°
Reaches altitude 10° 21:21:56 10° 220° (SW) 2,716 6.3 -27.7°
Maximum altitude 21:28:10 61° 301° (WNW) 1,108 4.4 -28.4°
Drops below altitude 10° 21:34:28 10° 21° (NNE) 2,750 6.6 -29.0°
Sets 21:37:05 0° 25° (NNE) 3,707 7.3 -29.3°
